This demonstration page uses our WeatherBlox Daily Observations layout. Learn more.

Left ArrowRight Arrow

38.88101, -77.10428

Hourly Observations for July 21, 2021

Temp ( °F °C ) Dew Point ( °F °C ) Humidity (%) Winds ( mph kmh ) Pressure ( in mb ) Visibility ( mi km ) Precip ( " mm )
12:52 am 00:52 Clear 79 26.1 66 18.9 65 65 S 7 11 29.91 1013 10 16 N/A
1:52 am 01:52 Clear 79 26.1 65 18.3 62 62 S 3 6 29.89 1012 10 16 N/A
2:52 am 02:52 Clear 77 25 66 18.9 69 69 SSW 5 7 29.88 1012 10 16 N/A
3:52 am 03:52 Mostly Clear 77 25 66 18.9 69 69 SSW 6 9 29.88 1012 10 16 N/A
4:52 am 04:52 Mostly Clear 76 24.4 66 18.9 72 72 SSW 6 9 29.88 1012 9 14 N/A
5:52 am 05:52 Mostly Cloudy 77 25 66 18.9 69 69 N N/A 29.88 1012 9 14 N/A
6:52 am 06:52 Partly Cloudy 77 25 67 19.4 71 71 N N/A 29.89 1012 8 13 N/A
7:52 am 07:52 Mostly Cloudy 79 26.1 67 19.4 67 67 SW 3 6 29.91 1013 7 11 N/A
8:52 am 08:52 Mostly Sunny 83 28.3 67 19.4 59 59 W 5 7 29.91 1013 7 11 N/A
9:52 am 09:52 Hazy 85 29.4 67 19.4 55 55 NNW 9 15 29.91 1013 6 10 N/A
10:52 am 10:52 Hazy 86 30 67 19.4 53 53 NNW 6 9 29.91 1013 5 8 N/A
11:52 am 11:52 Hazy 88 31.1 68 20 52 52 N 12 19 29.91 1013 5 8 N/A
12:52 pm 12:52 Mostly Cloudy with Haze 86 30 67 19.4 53 53 NW 8 13 29.90 1013 6 10 N/A
1:06 pm 13:06 Mostly Cloudy with Thunderstorms 88 31.1 65 18.3 46 46 N 13 20 29.90 1012 6 10 N/A
1:13 pm 13:13 Cloudy with Thunderstorms 80 26.7 67 19.4 64 64 NW 32 52 29.94 1014 1 1 0.00 0.00
1:23 pm 13:23 Cloudy with Strong Thunderstorms 74 23.3 61 16.1 64 64 undefined N/A 29.92 1013 4 6 0.45 11.43
1:35 pm 13:35 Mostly Cloudy 77 25 64 17.8 64 64 E 8 13 29.90 1012 10 16 0.45 11.43
1:52 pm 13:52 Partly Cloudy 84 28.9 65 18.3 53 53 N N/A 29.88 1012 10 16 0.45 11.43
2:52 pm 14:52 Partly Cloudy 89 31.7 70 21.1 53 53 VRB 7 11 29.87 1012 9 14 N/A
3:52 pm 15:52 Mostly Cloudy 87 30.6 67 19.4 51 51 NNW 20 31 29.89 1012 9 14 N/A
4:52 pm 16:52 Mostly Cloudy 85 29.4 64 17.8 50 50 N 10 17 29.88 1012 10 16 N/A
5:52 pm 17:52 Mostly Cloudy 85 29.4 63 17.2 48 48 NW 9 15 29.90 1012 10 16 N/A
6:52 pm 18:52 Mostly Cloudy 82 27.8 67 19.4 60 60 N 10 17 29.91 1013 10 16 N/A
7:52 pm 19:52 Mostly Sunny 81 27.2 65 18.3 58 58 NNW 3 6 29.93 1013 10 16 N/A
8:52 pm 20:52 Partly Cloudy 80 26.7 65 18.3 60 60 NNW 6 9 29.95 1014 10 16 N/A
9:52 pm 21:52 Mostly Clear 78 25.6 62 16.7 58 58 NE 16 26 29.99 1016 10 16 N/A
10:52 pm 22:52 Partly Cloudy 76 24.4 61 16.1 60 60 NNE 13 20 30.02 1017 10 16 N/A
11:52 pm 23:52 Mostly Cloudy 76 24.4 61 16.1 60 60 NNE 10 17 30.04 1017 10 16 N/A

Powered by AerisWeather